Location: Fontevrault
(47.1823°N, 0.0493°E)
Time: 08:47:11
(UTC+00:00)

Cosmos 1707 - Pass Details

Date: 16 June 2021
Orbit: 514 x 530 km, 82.5° (Epoch: 01 August)

Event Time Altitude Azimuth Distance (km) Brightness Sun altitude
Rises 20:54:26 0° 189° (S) 2,641 5.9 -7.9°
Reaches altitude 10° 20:56:33 10° 190° (S) 1,760 5.0 -8.2°
Maximum altitude 21:00:25 85° 276° (W) 535 2.8 -8.6°
Drops below altitude 10° 21:04:21 10° 8° (N) 1,784 6.1 -9.0°
Sets 21:06:31 0° 9° (N) 2,681 7.0 -9.3°
